This is the latest recevied weather packets stored in our database for station/object AB4KY. If no packets are shown the sender has not sent any weather packets the latest 10 day(s).
| Time | Temp. | Humidity | Pressure | Rain* | Wind** | Luminosity | Snow |
|---|---|---|---|---|---|---|---|
| 1778041913 | 14.44° C | 99% | 1004.3 hPa | 8.38 mm | - | 0 W/m² | - |
| 1778041612 | 14.44° C | 99% | 1004.4 hPa | 7.87 mm | - | 0 W/m² | - |
| 1778041310 | 14.44° C | 99% | 1004.7 hPa | 3.05 mm | - | 0 W/m² | - |
| 1778041008 | 14.44° C | 99% | 1004.3 hPa | 6.1 mm | - | 0 W/m² | - |
| 1778040704 | 14.44° C | 99% | 1004.2 hPa | 11.94 mm | - | 0 W/m² | - |
| 1778040408 | 15° C | 99% | 1004.4 hPa | 19.3 mm | - | 0 W/m² | - |
| 1778040098 | 15° C | 99% | 1004.5 hPa | 15.49 mm | - | 0 W/m² | - |
| 1778039796 | 15° C | 99% | 1004.4 hPa | 6.1 mm | - | 0 W/m² | - |
| 1778039492 | 15° C | 99% | 1004.4 hPa | 3.05 mm | - | 0 W/m² | - |
| 1778039189 | 15° C | 99% | 1004.4 hPa | 1.78 mm | - | 0 W/m² | - |
| 1778038886 | 15° C | 99% | 1004.3 hPa | 1.27 mm | - | 0 W/m² | - |
| 1778038583 | 15° C | 99% | 1004.4 hPa | 3.05 mm | - | 0 W/m² | - |
| 1778038280 | 15° C | 99% | 1004.5 hPa | 3.05 mm | - | 0 W/m² | - |
| 1778037978 | 15° C | 99% | 1004.5 hPa | 0 mm | - | 0 W/m² | - |
| 1778037675 | 15° C | 99% | 1004.7 hPa | 0.51 mm | - | 0 W/m² | - |
| 1778037372 | 15° C | 99% | 1004.5 hPa | 0.51 mm | - | 0 W/m² | - |
| 1778037068 | 15° C | 99% | 1004.7 hPa | 0 mm | - | 0 W/m² | - |
| 1778036767 | 15° C | 99% | 1004.5 hPa | 0 mm | - | 0 W/m² | - |
| 1778036464 | 15.56° C | 99% | 1004.8 hPa | 0.51 mm | - | 0 W/m² | - |
| 1778036161 | 15.56° C | 99% | 1004.6 hPa | 0.51 mm | - | 0 W/m² | - |
| 1778035856 | 15.56° C | 99% | 1004.3 hPa | 0.51 mm | - | 0 W/m² | - |
| 1778035554 | 15.56° C | 99% | 1004.9 hPa | 0.51 mm | - | 0 W/m² | - |
| 1778035250 | 15.56° C | 99% | 1004.9 hPa | 0.51 mm | - | 0 W/m² | - |
| 1778034946 | 15° C | 99% | 1004.9 hPa | 0.51 mm | - | 0 W/m² | - |
| 1778034644 | 15° C | 99% | 1005.1 hPa | 0 mm | - | 0 W/m² | - |
* Rain latest hour (hover to see other rain measurements)
** Current wind speed in m/s (hover to see current wind gust speed)